Date String (YYYY-MM-DD hh:mm:ss) UTC,Instrument flags,Ambient pressure (hPa),Sample flow (lpm),Bypass flow (lpm),Sample temperature (°C),Ambient temperature (°C),ASC tube jacket temperature (°C),LED temperature (°C),Box temperature (°C),Sample RH (%),Span deviation,Mass concentration (μg/m³),Mass concentration (μg/m³),Mass concentration (μg/m³)
DateTimeUTC,F1_M11,P_M11,Q1_M11,Q2_M11,T1_M11,T2_M11,T3_M11,T4_M11,T5_M11,U1_M11,ZSPAN_M11,X0_M11,X2_M11,X1_M11
2022-05-27 23:00:00,,0821.4,5.01,0.00,28.9,27.6,00.0,37.8,30.9,13.3,0000.0,0012.17,0003.58,0002.42
2022-05-27 23:01:00,,0821.3,5.00,0.00,29.0,27.8,00.0,37.8,30.9,13.3,0000.0,0012.67,0003.61,0002.44
2022-05-27 23:02:00,,0821.4,4.99,0.00,29.0,27.9,00.0,37.8,31.0,12.8,0000.0,0013.18,0003.66,0002.44
2022-05-27 23:03:00,,0821.4,5.02,0.00,29.1,28.1,00.0,37.8,31.1,12.5,0000.0,0012.85,0003.69,0002.44
2022-05-27 23:04:00,,0821.4,5.01,0.00,29.1,28.3,00.0,37.8,31.1,12.2,0000.0,0012.55,0003.75,0002.46
2022-05-27 23:05:00,,0821.4,4.99,0.00,29.2,28.4,00.0,37.9,31.2,12.6,0000.0,0012.60,0003.81,0002.49
2022-05-27 23:06:00,,0821.4,5.00,0.00,29.2,28.2,00.0,37.9,31.2,12.6,0000.0,0012.86,0003.82,0002.53
2022-05-27 23:07:00,,0821.3,5.00,0.00,29.1,27.4,00.0,37.8,30.9,12.9,0000.0,0012.37,0003.83,0002.55
2022-05-27 23:08:00,,0821.4,4.98,0.00,29.0,26.9,00.0,37.8,30.7,13.1,0000.0,0012.17,0003.82,0002.57
2022-05-27 23:09:00,,0821.4,4.99,0.00,29.0,26.8,00.0,37.8,30.7,13.5,0000.0,0011.34,0003.85,0002.58
2022-05-27 23:10:00,,0821.4,5.00,0.00,28.9,27.0,00.0,37.8,30.7,14.1,0000.0,0010.81,0003.86,0002.58
2022-05-27 23:11:00,,0821.4,5.00,0.00,28.9,27.1,00.0,37.8,30.8,13.4,0000.0,0010.61,0003.84,0002.56
2022-05-27 23:12:00,,0821.4,5.01,0.00,28.9,27.3,00.0,37.8,30.8,14.3,0000.0,0010.02,0003.81,0002.54
2022-05-27 23:13:00,,0821.4,4.99,0.00,29.0,27.5,00.0,37.8,30.9,14.1,0000.0,0009.66,0003.78,0002.53
2022-05-27 23:14:00,,0821.4,4.99,0.00,29.0,27.7,00.0,37.8,31.0,14.4,0000.0,0010.12,0003.76,0002.51
2022-05-27 23:15:00,,0821.4,5.01,0.00,29.0,27.9,00.0,37.8,31.0,14.9,0000.0,0010.21,0003.68,0002.49
2022-05-27 23:16:00,,0821.4,4.99,0.00,29.1,28.1,00.0,37.8,31.1,14.8,0000.0,0010.05,0003.61,0002.47
2022-05-27 23:17:00,,0821.4,5.00,0.00,29.1,28.2,00.0,37.9,31.1,14.9,0000.0,0009.97,0003.55,0002.45
2022-05-27 23:18:00,,0821.4,5.00,0.00,29.2,28.4,00.0,37.9,31.2,14.9,0000.0,0010.10,0003.53,0002.43
2022-05-27 23:19:00,,0821.4,5.00,0.00,29.2,28.0,00.0,37.9,31.1,15.4,0000.0,0009.54,0003.55,0002.42
2022-05-27 23:20:00,,0821.3,4.99,0.00,29.1,27.1,00.0,37.8,30.9,15.9,0000.0,0009.37,0003.51,0002.41
2022-05-27 23:21:00,,0821.4,5.01,0.00,29.0,26.8,00.0,37.8,30.7,16.1,0000.0,0009.34,0003.52,0002.41
2022-05-27 23:22:00,,0821.4,5.01,0.00,29.0,26.8,00.0,37.8,30.7,16.2,0000.0,0009.49,0003.51,0002.42
2022-05-27 23:23:00,,0821.4,5.01,0.00,28.9,26.9,00.0,37.8,30.7,16.2,0000.0,0009.31,0003.51,0002.43
2022-05-27 23:24:00,,0821.4,5.00,0.00,28.9,27.1,00.0,37.8,30.8,15.6,0000.0,0009.12,0003.52,0002.44
2022-05-27 23:25:00,,0821.4,5.00,0.00,28.9,27.3,00.0,37.8,30.8,15.4,0000.0,0008.70,0003.53,0002.45
2022-05-27 23:26:00,,0821.4,5.00,0.00,29.0,27.6,00.0,37.8,30.9,15.6,0000.0,0008.40,0003.55,0002.45
2022-05-27 23:27:00,,0821.4,5.01,0.00,29.0,27.7,00.0,37.8,31.0,15.9,0000.0,0008.45,0003.59,0002.43
2022-05-27 23:28:00,,0821.4,4.99,0.00,29.0,27.9,00.0,37.8,31.0,16.6,0000.0,0008.18,0003.60,0002.43
2022-05-27 23:29:00,,0821.5,4.99,0.00,29.1,28.1,00.0,37.9,31.1,16.0,0000.0,0007.97,0003.59,0002.41
2022-05-27 23:30:00,,0821.5,5.00,0.00,29.1,28.2,00.0,37.9,31.1,16.3,0000.0,0008.52,0003.57,0002.40
2022-05-27 23:31:00,,0821.6,5.00,0.00,29.2,28.4,00.0,37.9,31.2,16.1,0000.0,0008.56,0003.63,0002.41
2022-05-27 23:32:00,,0821.6,5.01,0.00,29.2,28.3,00.0,37.9,31.2,16.1,0000.0,0008.58,0003.62,0002.40
2022-05-27 23:33:00,,0821.6,5.01,0.00,29.2,27.5,00.0,37.9,30.9,14.6,0000.0,0009.14,0003.65,0002.39
2022-05-27 23:34:00,,0821.7,4.99,0.00,29.1,26.8,00.0,37.8,30.7,15.1,0000.0,0009.71,0003.68,0002.38
2022-05-27 23:35:00,,0821.7,5.00,0.00,29.0,26.8,00.0,37.8,30.7,15.7,0000.0,0010.03,0003.68,0002.36
2022-05-27 23:36:00,,0821.7,5.01,0.00,28.9,26.9,00.0,37.8,30.7,15.3,0000.0,0010.95,0003.77,0002.36
2022-05-27 23:37:00,,0821.7,5.00,0.00,28.9,27.1,00.0,37.8,30.7,15.9,0000.0,0011.69,0003.84,0002.38
2022-05-27 23:38:00,,0821.6,5.00,0.00,28.9,27.3,00.0,37.8,30.8,16.0,0000.0,0012.39,0003.85,0002.39
2022-05-27 23:39:00,,0821.6,4.99,0.00,29.0,27.5,00.0,37.8,30.9,14.7,0000.0,0012.56,0003.84,0002.39
2022-05-27 23:40:00,,0821.6,5.00,0.00,29.0,27.7,00.0,37.8,30.9,15.1,0000.0,0012.88,0003.86,0002.41
2022-05-27 23:41:00,,0821.7,5.01,0.00,29.0,27.9,00.0,37.8,31.0,16.4,0000.0,0012.54,0003.85,0002.42
2022-05-27 23:42:00,,0821.6,5.01,0.00,29.1,28.0,00.0,37.8,31.1,13.5,0000.0,0012.38,0003.81,0002.40
2022-05-27 23:43:00,,0821.6,5.00,0.00,29.1,28.2,00.0,37.9,31.1,12.9,0000.0,0012.38,0003.81,0002.39
2022-05-27 23:44:00,,0821.6,4.99,0.00,29.2,28.3,00.0,37.9,31.2,12.3,0000.0,0012.36,0003.81,0002.38
2022-05-27 23:45:00,,0821.7,5.00,0.00,29.2,28.4,00.0,37.9,31.2,12.1,0000.0,0011.31,0003.72,0002.35
2022-05-27 23:46:00,,0821.8,5.00,0.00,29.2,28.2,00.0,37.9,31.2,13.1,0000.0,0011.37,0003.69,0002.35
2022-05-27 23:47:00,,0821.7,5.00,0.00,29.2,27.4,00.0,37.9,31.0,12.8,0000.0,0010.45,0003.58,0002.32
2022-05-27 23:48:00,,0821.7,5.01,0.00,29.1,26.9,00.0,37.8,30.8,12.4,0000.0,0009.57,0003.48,0002.29
2022-05-27 23:49:00,,0821.6,5.01,0.00,29.0,26.9,00.0,37.8,30.8,12.7,0000.0,0008.76,0003.42,0002.25
2022-05-27 23:50:00,,0821.6,5.00,0.00,29.0,27.0,00.0,37.8,30.8,12.8,0000.0,0009.03,0003.42,0002.21
2022-05-27 23:51:00,,0821.7,5.00,0.00,29.0,27.1,00.0,37.8,30.8,12.7,0000.0,0009.21,0003.43,0002.17
2022-05-27 23:52:00,,0821.8,4.99,0.00,29.0,27.3,00.0,37.8,30.8,12.0,0000.0,0009.00,0003.41,0002.14
2022-05-27 23:53:00,,0821.8,4.99,0.00,29.0,27.5,00.0,37.8,30.9,12.2,0000.0,0009.03,0003.41,0002.13
2022-05-27 23:54:00,,0821.7,5.00,0.00,29.0,27.7,00.0,37.8,30.9,12.6,0000.0,0009.33,0003.41,0002.12
2022-05-27 23:55:00,,0821.7,5.01,0.00,29.0,27.9,00.0,37.9,31.0,12.2,0000.0,0009.38,0003.43,0002.11
2022-05-27 23:56:00,,0821.7,5.01,0.00,29.1,28.0,00.0,37.9,31.0,12.4,0000.0,0009.65,0003.47,0002.14
2022-05-27 23:57:00,,0821.5,5.00,0.00,29.1,28.1,00.0,37.9,31.1,12.0,0000.0,0009.81,0003.49,0002.15
2022-05-27 23:58:00,,0821.4,4.99,0.00,29.1,28.3,00.0,37.9,31.2,12.1,0000.0,0010.92,0003.53,0002.16
2022-05-27 23:59:00,,0821.4,5.01,0.00,29.2,28.4,00.0,37.9,31.2,12.6,0000.0,0011.58,0003.62,0002.16
